Regional Weather Roundup
Issued by NWS

Home | Current Version | Previous Version | Text Only | Print | Product List | Glossary Off
Versions: 1 2 3 4 5 6 7 8 9 10 11 12 13 14 15 16 17 18 19 20 21 22 23 24 25 26 27 28 29 30 31 32 33 34 35 36 37 38 39 40 41 42 43 44 45 46 47 48 49 50

000
ASUS43 KIND 241009
RWRIN

WEATHER ROUNDUP FOR INDIANA
NATIONAL WEATHER SERVICE INDIANAPOLIS IN
600 AM EDT SUN SEP 24 2017

NOTE: "FAIR" INDICATES FEW OR NO CLOUDS BELOW 12,000 FEET WITH NO
SIGNIFICANT WEATHER AND/OR OBSTRUCTIONS TO VISIBILITY.

* - STATION DOES NOT REPORT WEATHER SUCH AS PRECIPITATION OR FOG.

+ - STATION NOT QUALITY CONTROLLED BY THE NATIONAL WEATHER SERVICE.
    USE DATA WITH CAUTION...ESPECIALLY DEWPOINT AND RELATIVE
    HUMIDITY OBSERVATIONS.

INZ001>003-010>013-019-020-241100-
NORTHWEST INDIANA

CITY           SKY/WX    TMP DP  RH WIND       PRES   REMARKS
GARY /AIRPORT/ CLEAR     64  63  94 CALM      30.09S
KNOX *+        CLEAR     61  59  94 CALM      30.10S
LA PORTE +     CLEAR     62  60  94 CALM      30.12R
MICHIGAN CITY+ CLEAR     64  63  94 CALM      30.10S
MONTICELLO +   CLEAR     65  63  95 CALM      30.09S
RENSSELAER +   CLEAR     64  59  82 CALM      30.10S
VALPARAISO     CLEAR     65  63  93 CALM      30.11R

$$

LMZ046-743>745-241100-
SOUTHERN LAKE MICHIGAN

STATION/POSITION TIME  TEMP    WIND        PRES    WAVE
                       AIR SEA DIR/SP/G            HT
                 (UTC) (F)     (DEG/KT/KT) (MB)    (FT)
BURNS HARBOR     0940   74     140/  7/ 10 1019.0S
MICHIGAN CITY    0940   72     120/ 10/ 11   N/A
5NW MICH CITY    1000   72 72  160/  6/ 10   N/A     1

$$

INZ004-005-014>016-021>024-241100-
NORTH CENTRAL INDIANA

CITY           SKY/WX    TMP DP  RH WIND       PRES   REMARKS
GOSHEN         CLEAR     66  58  75 SE3       30.12S
LOGANSPORT +   CLEAR     63  61  94 CALM      30.11S
PERU/GRISSOM   CLEAR     65  62  89 E5        30.10
SOUTH BEND     CLEAR     67  63  87 E3        30.12R
WARSAW +       CLEAR     63  61  94 CALM      30.12S

$$

INZ006>009-017-018-025>027-241100-
NORTHEAST INDIANA

CITY           SKY/WX    TMP DP  RH WIND       PRES   REMARKS
AUBURN +       CLEAR     63  59  88 CALM      30.14S
FORT WAYNE     CLEAR     63  59  87 CALM      30.14R
HUNTINGTON +   CLEAR     62  60  96 CALM      30.13R
KENDALLVILLE + CLEAR     65  59  80 CALM      30.14S

$$

INZ028-029-035-036-043>045-051>053-241100-
WEST CENTRAL INDIANA

CITY           SKY/WX    TMP DP  RH WIND       PRES   REMARKS
GREENCASTLE +  CLEAR     63  61  94 CALM      30.10S
LAFAYETTE      CLEAR     65  65 100 CALM      30.08S
TERRE HAUTE    CLEAR     63  60  90 CALM      30.08R

$$

INZ030>032-037>040-046>048-054>057-064-065-241100-
CENTRAL INDIANA

CITY           SKY/WX    TMP DP  RH WIND       PRES   REMARKS
CP ATTERBURY + CLEAR     59  57  94 CALM      30.10S FOG
FRANKFORT +    CLOUDY    63  61  96 CALM      30.12R FOG
GREENWOOD *+   CLEAR     71  65  83 E6        30.10S
INDIANAPOLIS   CLEAR     70  63  78 E3        30.09S
-EAGLE CREEK   CLEAR     67  62  84 CALM      30.09S
KOKOMO +       PTCLDY    64  60  87 E3        30.12R
MT COMFORT *+  CLEAR     59  57  94 CALM      30.11R
SHELBYVILLE    CLEAR     64  59  83 NE6       30.09S
ZIONSVILLE +   PTCLDY    60  59  98 CALM      30.11S

$$

INZ033-034-041-042-049-050-058-059-241100-
EAST CENTRAL INDIANA

CITY           SKY/WX    TMP DP  RH WIND       PRES   REMARKS
MUNCIE         CLEAR     60  57  89 SE5       30.12S
RICHMOND +     CLEAR     59  57  94 E6        30.13S

$$

INZ060-061-067>069-081>083-085>088-241100-
SOUTHWEST INDIANA

CITY           SKY/WX    TMP DP  RH WIND       PRES   REMARKS
EVANSVILLE     CLEAR     64  62  93 NE5       30.05R
HUNTINGBURG +  CLEAR     63  63 100 NE5       30.06S FOG
WASHINGTON +   CLEAR     62  60  94 CALM      30.06S FOG

$$

INZ062-063-066-070>080-084-089>092-241100-
SOUTH CENTRAL AND SOUTHEAST INDIANA

CITY           SKY/WX    TMP DP  RH WIND       PRES   REMARKS
BEDFORD +      CLEAR     63  61  94 CALM      30.08S FOG
BLOOMINGTON    CLEAR     62  58  86 CALM      30.09R FOG
MADISON *+     CLEAR     64  61  88 E3        30.10S
NORTH VERNON + CLEAR     61  61 100 E5        30.09S
SEYMOUR +      FOG       61  61 100 CALM      30.08R VSB 1/4

$$





USA.gov is the U.S. government's official web portal to all federal, state and local government web resources and services.